This is the latest recevied weather packets stored in our database for station/object K5OBH. If no packets are shown the sender has not sent any weather packets the latest 10 day(s).
| Time | Temp. | Humidity | Pressure | Rain* | Wind** | Luminosity | Snow |
|---|---|---|---|---|---|---|---|
| 1777840546 | 27.78° C | 31% | 1014.1 hPa | 0 mm | - | 617 W/m² | - |
| 1777840243 | 27.78° C | 28% | 1014.4 hPa | 0 mm | - | 630 W/m² | - |
| 1777839941 | 27.78° C | 28% | 1014.4 hPa | 0 mm | - | 642 W/m² | - |
| 1777839639 | 28.33° C | 28% | 1014.4 hPa | 0 mm | - | 651 W/m² | - |
| 1777839337 | 28.33° C | 28% | 1014.4 hPa | 0 mm | - | 661 W/m² | - |
| 1777839034 | 27.78° C | 28% | 1014.5 hPa | 0 mm | - | 666 W/m² | - |
| 1777838730 | 27.78° C | 29% | 1014.6 hPa | 0 mm | - | 671 W/m² | - |
| 1777838427 | 27.78° C | 29% | 1014.8 hPa | 0 mm | - | 684 W/m² | - |
| 1777838124 | 27.78° C | 30% | 1014.7 hPa | 0 mm | - | 692 W/m² | - |
| 1777837821 | 28.33° C | 28% | 1014.9 hPa | 0 mm | - | 700 W/m² | - |
| 1777837518 | 28.33° C | 28% | 1014.9 hPa | 0 mm | - | 706 W/m² | - |
| 1777837218 | 28.33° C | 30% | 1014.8 hPa | 0 mm | - | 712 W/m² | - |
| 1777836915 | 27.78° C | 30% | 1015.2 hPa | 0 mm | - | 718 W/m² | - |
| 1777836610 | 27.78° C | 30% | 1015.2 hPa | 0 mm | - | 722 W/m² | - |
| 1777836306 | 27.78° C | 31% | 1015.2 hPa | 0 mm | - | 728 W/m² | - |
| 1777836001 | 27.22° C | 31% | 1015.5 hPa | 0 mm | - | 733 W/m² | - |
| 1777835699 | 27.78° C | 30% | 1015.5 hPa | 0 mm | - | 737 W/m² | - |
| 1777835395 | 27.78° C | 30% | 1015.5 hPa | 0 mm | - | 741 W/m² | - |
| 1777835093 | 26.67° C | 28% | 1015.5 hPa | 0 mm | - | 748 W/m² | - |
| 1777834790 | 27.22° C | 29% | 1015.7 hPa | 0 mm | - | 751 W/m² | - |
| 1777834486 | 27.78° C | 30% | 1015.8 hPa | 0 mm | - | 752 W/m² | - |
| 1777834186 | 27.22° C | 27% | 1015.7 hPa | 0 mm | - | 751 W/m² | - |
| 1777833882 | 27.22° C | 30% | 1016 hPa | 0 mm | - | 745 W/m² | - |
| 1777833579 | 26.67° C | 28% | 1016 hPa | 0 mm | - | 754 W/m² | - |
| 1777833275 | 27.22° C | 29% | 1016 hPa | 0 mm | - | 767 W/m² | - |
* Rain latest hour (hover to see other rain measurements)
** Current wind speed in m/s (hover to see current wind gust speed)